Wind_Speed
13 13 13 13 13 13 11 11 11 11 12 13 12 11 10 12 13 11 10 10 8 8 8 7 8 9 9 9 8 8 8 7 7 7 9 9 5 3 4 5 5 6 7 8 8 8 8 8 9 10 11 11 11 10 10 9 9 9 9 9 10 11 12 12 13 13 13 12 13 13 13 13 13 13
13 13 14 13 13 13 12 12 11 11 12 13 12 11 12 13 14 12 12 13 12 10 7 5 6 10 11 10 9 9 9 9 9 9 9 9 6 3 4 4 5 5 6 7 8 8 9 8 8 9 9 9 9 8 8 8 8 8 8 8 10 11 12 13 14 13 12 12 13 13 14 14 13 13
16 16 17 16 15 14 13 13 12 11 12 11 11 12 12 12 12 12 12 15 13 11 8 6 6 9 10 10 10 10 10 10 11 11 10 9 7 7 7 6 5 5 5 6 6 7 8 9 9 9 8 8 8 7 7 7 8 8 8 9 11 12 13 14 14 14 13 13 13 14 14 14 13 13
19 20 19 18 16 15 13 13 12 11 11 11 11 12 12 11 12 12 12 14 12 10 8 8 8 9 9 10 11 11 12 12 12 12 11 9 9 10 10 9 8 7 5 5 6 7 8 9 9 9 9 8 8 7 7 7 8 9 10 10 12 13 14 14 14 14 14 14 14 14 13 13 13 13
20 21 20 18 16 15 14 14 13 11 11 12 13 13 11 10 12 12 12 14 13 11 10 9 8 10 10 10 11 11 13 14 13 12 11 11 13 13 12 12 11 9 7 5 6 7 8 9 10 10 10 9 9 8 7 7 8 9 10 11 12 13 14 14 14 14 14 14 14 14 13 14 14 14
19 20 20 19 17 15 14 15 14 12 12 12 13 12 11 11 13 13 12 13 14 13 12 10 10 11 11 11 12 13 13 14 13 13 14 14 14 14 14 13 12 12 11 9 8 9 9 9 10 10 10 11 10 10 9 9 9 9 10 11 12 13 14 14 14 14 14 14 14 14 14 15 15 15
19 19 20 20 19 16 15 15 15 14 13 13 14 13 12 12 13 13 13 13 13 14 13 12 13 12 10 11 12 13 14 14 14 15 16 15 14 14 15 14 13 14 14 12 11 11 11 10 10 11 11 12 12 12 11 11 10 10 10 11 11 12 12 13 13 13 13 14 14 14 14 15 15 15
18 19 19 19 18 16 15 15 16 15 14 14 15 13 12 13 13 13 14 14 12 12 13 13 13 13 11 11 11 11 12 14 15 17 17 16 16 16 16 16 15 14 14 14 14 13 13 13 13 13 13 12 13 13 13 13 13 12 12 12 12 11 11 12 12 12 13 13 13 13 14 14 14 14
17 19 19 19 18 17 17 17 16 15 13 14 14 13 14 14 13 12 13 13 13 13 13 12 11 12 12 12 12 11 11 12 15 17 18 18 18 18 17 16 16 15 15 16 15 14 15 16 15 15 14 14 14 14 14 14 14 14 14 14 13 13 13 12 12 13 13 13 14 14 14 15 14 14
19 19 19 19 19 19 19 18 17 16 15 16 16 15 16 15 14 14 14 13 12 14 14 12 11 12 12 12 12 12 12 13 14 15 16 18 18 18 17 17 16 16 17 18 17 17 17 17 16 16 15 15 16 16 15 15 15 15 15 15 15 15 15 15 14 15 15 15 15 16 16 15 15 15
21 20 19 19 19 20 20 19 19 20 19 19 17 17 16 15 14 15 14 12 12 13 13 11 10 10 11 13 12 12 13 14 14 14 15 15 15 17 18 18 17 17 18 19 19 19 19 18 17 16 16 16 17 17 18 17 17 16 16 16 17 17 17 17 17 16 16 17 17 16 16 16 15 16
22 22 20 19 19 20 20 19 19 21 20 19 18 18 17 16 16 16 15 13 12 12 12 12 11 10 10 12 12 11 12 13 13 13 14 14 15 16 19 19 19 19 19 19 19 19 19 18 17 16 15 15 16 17 18 18 17 16 16 17 17 18 18 18 17 17 17 17 16 16 15 15 15 15
23 22 21 21 21 19 19 18 19 20 20 18 18 18 17 16 17 17 16 15 14 13 14 14 13 12 11 11 11 12 11 10 10 11 13 15 15 16 18 18 19 19 19 19 19 18 17 16 16 16 15 14 14 15 16 17 16 16 16 17 18 19 19 19 18 18 18 18 18 17 17 16 16 16
23 22 21 21 21 19 19 19 19 19 19 19 18 18 18 17 16 16 17 17 15 14 14 13 12 12 11 10 10 10 10 9 10 11 12 13 12 14 16 16 15 16 17 18 18 17 16 15 16 16 16 15 15 15 15 15 15 14 15 16 17 18 19 20 20 20 20 20 20 21 20 19 19 18
22 22 21 21 19 19 19 19 18 18 18 19 20 20 20 18 16 16 16 16 15 13 12 11 11 11 11 10 10 9 9 9 10 10 10 10 11 13 14 14 13 13 14 15 16 15 14 14 15 15 16 16 16 16 15 14 14 14 14 15 16 16 17 19 20 22 23 23 24 24 24 23 23 21
21 21 20 20 19 19 19 18 16 15 17 19 20 21 21 19 18 17 17 16 14 13 12 12 11 11 11 11 10 9 9 9 8 9 10 10 10 12 13 13 13 13 12 13 14 14 13 14 14 14 15 16 17 16 15 14 14 14 14 15 16 17 17 18 19 21 23 24 25 26 26 26 25 24
21 21 19 19 19 19 18 17 15 15 16 18 19 19 19 19 18 17 17 16 14 13 13 13 11 10 10 11 9 8 8 9 8 9 10 9 10 11 13 13 13 13 13 14 15 14 13 13 13 14 15 16 16 15 14 14 14 14 15 16 17 18 19 20 21 22 22 23 24 24 24 24 24 24
23 22 20 18 18 18 17 16 15 16 17 17 16 16 16 16 16 15 15 15 14 14 13 13 11 10 11 11 9 9 9 10 9 10 10 10 11 12 12 12 13 12 12 14 15 14 12 11 11 13 15 15 14 14 14 14 14 15 16 17 18 20 21 22 22 22 22 22 22 23 23 22 22 23
25 23 20 17 17 18 17 15 15 16 16 16 14 14 14 14 13 13 13 13 13 13 13 13 12 12 12 11 10 9 9 8 8 8 8 8 10 10 10 11 12 11 10 12 15 14 11 9 10 12 14 14 13 13 13 14 15 16 17 18 18 20 20 20 20 20 20 20 21 21 21 20 20 21
23 21 20 19 19 17 16 15 15 16 16 14 13 13 13 12 12 12 12 11 12 12 13 13 12 12 12 11 10 9 7 7 7 9 9 10 10 11 12 11 10 9 9 10 12 12 10 9 11 12 12 13 13 13 13 14 15 16 17 17 18 18 18 17 17 17 16 17 18 18 18 18 19 20
20 19 20 21 19 16 15 15 15 15 15 15 14 13 12 11 11 11 10 10 11 11 11 11 12 12 12 11 12 12 12 12 13 15 16 15 13 14 15 13 10 9 10 11 12 12 11 10 12 13 13 13 14 15 14 13 13 13 14 15 15 16 16 16 15 15 15 15 15 15 15 16 17 18
18 18 19 19 18 16 15 15 14 14 15 14 14 13 12 11 10 10 10 10 10 10 11 11 11 12 12 14 15 15 15 16 17 18 18 18 17 17 17 15 13 12 11 12 12 13 12 10 11 13 14 14 14 15 15 12 11 11 12 13 14 14 15 15 15 15 16 15 15 15 15 15 15 16
18 19 19 18 17 16 15 14 13 14 15 14 14 15 15 13 11 11 12 12 11 10 10 10 10 11 13 14 14 15 16 16 15 15 15 15 17 18 17 16 15 13 11 10 12 12 12 12 12 13 13 12 13 15 15 13 13 13 13 13 14 14 14 15 15 16 17 17 17 16 16 16 16 16
19 18 18 17 16 15 14 13 13 14 15 15 16 16 16 14 12 13 14 14 14 12 10 10 10 10 13 15 15 16 15 14 12 11 12 12 13 14 15 15 14 11 10 10 10 10 10 11 12 12 11 10 11 13 14 15 15 16 16 15 14 13 13 13 14 15 16 16 15 15 15 15 15 15
18 17 17 17 15 14 13 13 14 15 16 17 18 18 17 16 15 14 14 16 16 14 13 12 10 11 15 15 12 10 9 9 9 10 11 11 11 11 12 12 11 11 12 13 12 12 12 11 11 11 11 11 12 13 14 16 17 17 16 16 15 14 14 14 14 14 15 15 14 14 14 14 14 14
16 16 16 16 14 14 14 14 15 16 17 19 21 22 22 21 19 17 16 17 16 14 12 11 10 12 14 11 7 6 7 9 11 12 11 11 11 10 10 11 10 11 13 13 12 11 11 10 11 12 12 12 12 12 13 15 17 17 16 16 17 17 17 17 17 16 14 13 14 14 14 13 13 13
16 15 15 14 13 14 15 16 16 18 19 20 22 23 25 24 22 20 18 18 17 14 11 11 12 13 12 8 7 9 12 13 14 15 14 13 12 11 11 12 12 14 14 14 13 12 11 11 12 12 12 12 13 12 11 13 16 17 16 16 18 18 17 18 19 18 15 14 14 15 14 13 12 11
15 14 13 13 14 15 16 17 20 21 22 21 19 19 21 22 21 19 17 17 17 15 14 15 14 12 10 10 11 13 14 15 14 13 12 12 11 10 10 11 13 13 13 12 12 13 13 13 13 13 13 14 14 13 12 13 16 17 16 15 17 19 19 19 20 20 19 17 14 14 13 12 11 10
13 14 14 15 16 16 17 19 20 20 19 17 15 15 16 17 17 15 13 13 12 11 11 11 10 9 10 12 12 13 13 13 12 11 10 10 10 8 8 8 9 9 8 7 9 12 14 14 14 14 14 15 16 15 15 16 17 16 15 15 16 18 19 20 21 22 21 18 13 11 11 11 10 9
17 17 18 19 19 19 19 19 17 15 14 12 11 11 12 12 12 11 11 13 14 11 8 7 8 10 12 13 12 12 12 12 12 12 10 9 8 7 7 7 7 7 7 8 10 13 14 14 14 13 13 13 13 12 13 14 15 16 16 16 16 16 17 19 21 23 22 19 13 10 9 9 9 9
18 18 18 19 19 18 17 14 12 11 10 9 8 8 8 9 10 10 10 12 14 14 11 9 9 11 12 11 12 13 13 11 10 9 8 6 6 7 7 6 6 7 8 10 12 12 12 12 13 13 13 14 13 12 12 13 14 14 14 15 15 16 17 19 20 23 24 20 13 10 9 9 9 8
16 16 15 15 15 13 12 11 10 8 7 8 8 7 7 9 9 8 9 10 12 15 14 11 11 12 11 9 9 11 11 9 7 7 7 7 7 8 8 7 7 7 8 10 11 12 11 12 12 12 13 15 16 16 16 16 15 13 13 15 16 17 18 19 19 21 23 19 13 10 10 10 10 9
12 13 12 11 12 11 10 9 9 7 6 7 7 6 8 10 8 6 5 6 10 13 14 12 11 11 10 8 6 6 7 8 8 9 9 10 9 9 9 8 6 6 7 9 11 12 12 13 14 14 12 12 15 17 17 17 17 15 14 16 17 17 17 18 19 22 22 18 14 12 11 11 11 11
7 9 9 8 7 7 7 7 7 7 6 6 7 7 8 9 7 6 4 4 5 7 10 12 11 9 7 7 5 4 4 6 7 9 10 10 10 10 8 7 5 6 7 9 11 13 14 14 14 13 11 8 9 10 11 13 14 14 14 15 16 16 17 17 19 21 20 17 15 15 14 13 13 13
6 5 5 4 3 4 5 5 6 6 6 5 6 6 6 9 10 9 7 5 6 7 7 9 11 8 7 7 5 4 5 6 6 7 7 7 8 8 8 8 7 7 8 9 10 12 13 13 13 13 10 8 7 5 4 5 7 8 10 13 14 15 16 15 15 17 18 17 17 18 16 14 14 14
10 6 5 6 7 7 7 8 8 8 8 7 9 11 10 8 8 10 10 10 10 9 6 4 5 6 7 7 6 7 8 8 7 7 7 5 4 4 5 6 6 6 9 9 8 9 10 11 12 12 9 7 7 9 9 8 7 6 8 10 12 13 14 14 14 15 17 17 18 18 16 14 13 13
12 9 8 8 9 10 10 11 11 11 12 11 11 13 14 11 7 6 10 11 11 9 6 5 5 4 5 7 7 8 9 9 8 9 8 6 3 3 4 5 5 7 9 8 6 8 11 12 11 9 6 5 7 10 11 8 5 6 9 10 9 10 12 13 14 15 15 17 18 17 16 13 11 10
13 11 9 9 10 10 11 11 11 12 13 14 12 10 11 12 11 8 8 10 10 9 9 10 9 7 7 8 9 9 9 9 8 8 8 7 6 6 6 5 6 8 10 10 9 10 10 9 8 6 5 4 6 8 8 7 5 7 9 9 9 11 12 12 12 13 14 15 15 13 12 12 11 9
11 11 9 8 9 10 10 10 11 11 10 12 12 10 8 9 12 12 11 11 11 10 9 12 11 10 10 10 10 10 10 9 7 6 6 8 10 10 9 7 6 7 9 10 11 11 11 9 7 6 6 5 5 7 10 11 11 11 11 11 12 13 13 10 9 10 12 13 12 11 11 12 13 11
7 8 9 8 7 9 10 10 11 11 9 9 11 12 10 9 10 11 10 11 12 10 9 11 11 10 11 13 12 11 10 9 8 8 8 10 12 11 9 7 7 7 9 10 12 15 15 12 9 9 10 11 11 9 11 14 14 13 14 15 14 14 14 11 9 10 11 11 10 11 13 14 14 13
3 4 7 9 8 7 9 10 10 10 10 10 10 12 12 11 11 10 10 11 12 10 8 11 11 11 12 14 14 12 11 11 11 12 11 11 11 12 11 10 9 9 10 10 10 13 17 15 11 10 11 11 11 11 14 15 12 9 10 14 13 12 13 11 11 12 12 11 10 12 13 13 13 13
8 7 3 4 6 6 6 8 9 8 9 10 10 12 13 13 14 14 13 13 12 11 9 11 12 12 13 14 14 13 13 13 13 13 12 12 12 14 15 14 12 10 9 8 8 11 14 13 11 10 9 10 11 13 15 17 14 11 12 14 13 11 13 13 12 11 11 12 12 12 11 11 11 13
9 9 7 4 3 5 6 7 7 7 7 8 8 10 11 12 13 14 15 15 15 15 14 13 12 11 12 13 14 13 13 13 14 13 13 13 13 13 15 16 13 11 10 10 11 12 12 10 9 9 10 12 15 16 17 17 15 12 11 13 14 14 14 15 13 12 12 15 15 13 11 10 11 11
6 8 9 6 5 6 7 7 7 7 8 8 8 9 10 11 11 12 13 14 15 16 16 14 13 13 13 13 14 14 14 14 14 14 14 14 13 13 14 15 13 12 11 10 10 11 11 11 13 13 14 16 18 18 17 16 13 11 12 15 17 17 17 16 15 15 16 17 16 14 12 12 11 9
6 8 9 8 7 7 8 7 6 7 7 6 7 8 9 11 12 12 12 12 12 13 13 13 13 14 14 13 14 15 15 14 14 14 14 14 14 13 14 14 14 13 13 11 10 11 13 14 15 17 18 19 20 19 17 16 14 14 16 18 18 19 19 18 18 19 20 19 17 15 15 14 13 11
Wind_Direction
271 269 266 265 269 274 271 265 261 258 259 261 262 262 261 264 274 284 287 286 285 286 285 273 252 236 230 230 229 234 241 240 243 255 266 272 270 231 235 256 263 266 269 266 267 271 278 290 295 297 299 298 293 289 283 273 258 246 240 240 243 249 255 260 264 269 273 273 273 276 277 278 278 279
272 273 272 270 269 271 271 268 265 261 261 263 263 260 256 260 268 276 285 290 289 284 280 265 246 236 230 228 227 230 234 231 232 237 241 247 252 245 240 249 262 270 274 274 275 277 282 292 299 301 301 300 297 290 284 277 260 244 239 242 247 252 256 258 264 271 275 275 276 278 278 278 279 279
272 274 274 273 272 268 263 262 264 264 265 268 268 266 265 268 268 267 275 283 284 284 284 277 259 247 238 234 232 232 237 245 248 242 235 234 244 265 269 262 265 273 278 283 284 286 288 292 298 302 303 301 297 291 285 278 264 250 243 244 247 250 255 259 265 271 274 275 278 279 279 279 280 281
273 275 275 275 276 273 267 264 263 263 266 268 263 261 265 271 269 263 263 266 267 268 273 277 275 266 252 240 239 240 238 245 251 244 235 232 237 255 268 269 267 265 269 287 297 300 299 296 297 299 301 301 298 291 284 276 269 261 252 248 249 253 258 263 268 271 273 276 278 279 279 279 281 282
273 275 273 270 270 269 266 267 265 261 263 264 259 254 254 259 263 264 268 271 271 267 257 257 263 261 256 254 254 251 242 241 248 245 240 239 237 243 256 263 263 256 252 263 280 289 295 294 294 296 297 298 297 293 286 277 272 269 264 261 258 260 264 267 270 272 275 277 278 279 279 279 279 279
274 273 271 270 271 268 262 263 266 263 259 263 263 255 249 254 263 270 272 270 271 269 261 254 256 253 254 260 261 257 249 242 245 250 249 246 243 247 254 260 261 255 250 253 262 271 279 283 288 292 293 295 294 292 288 281 275 272 270 268 266 267 269 270 271 273 275 276 277 278 278 278 278 277
274 273 271 269 269 265 259 259 263 263 259 261 263 258 257 262 267 268 265 260 262 266 265 262 261 261 261 263 264 263 255 247 245 249 248 246 250 257 259 260 264 263 262 264 267 270 274 275 279 284 287 290 291 290 289 285 280 275 270 268 268 270 271 273 274 276 277 279 279 281 281 279 279 279
275 275 272 270 268 263 258 257 261 264 265 261 256 258 265 263 262 265 266 268 272 274 274 270 266 267 268 267 266 264 260 252 246 244 245 249 255 259 258 258 264 268 266 264 263 267 273 276 277 279 282 284 285 286 286 284 282 278 273 269 269 269 270 273 274 276 277 279 280 280 280 280 280 279
266 267 268 271 270 263 258 258 261 263 265 263 256 257 265 265 266 275 277 279 281 280 278 277 274 272 271 270 266 264 261 253 246 247 253 258 258 256 257 260 264 268 264 263 266 270 274 277 278 278 278 278 279 281 282 281 281 279 276 272 270 270 270 270 272 274 275 277 280 281 280 279 278 276
261 258 259 266 269 267 264 264 267 266 263 263 258 256 261 266 273 278 276 276 278 276 274 275 276 277 277 277 272 267 263 255 250 252 256 258 257 259 262 264 266 267 267 268 272 272 272 274 277 279 279 276 275 275 277 278 278 277 276 274 272 271 271 271 272 273 276 280 283 283 281 278 276 274
261 255 254 257 262 268 270 270 273 273 268 264 259 257 261 266 272 274 274 276 277 275 275 275 274 274 277 280 277 272 268 262 255 252 252 258 264 266 266 266 264 263 265 269 272 272 272 275 278 279 278 277 275 273 272 273 275 275 275 275 274 273 273 272 273 273 276 280 282 280 278 276 275 274
257 256 257 257 259 264 269 272 274 271 267 262 259 260 262 262 265 268 272 276 276 274 277 280 278 272 273 276 274 270 269 268 263 255 254 262 269 270 269 268 266 265 266 268 269 271 275 277 279 279 278 279 280 275 271 271 272 273 274 275 275 275 274 274 273 273 275 278 280 279 277 277 278 278
256 256 258 259 259 259 262 268 270 267 265 262 260 262 263 262 263 264 264 265 267 269 273 276 277 275 274 275 272 268 268 272 270 261 257 260 264 268 269 268 268 269 269 269 269 271 274 277 279 280 278 278 280 277 272 269 268 269 270 271 271 271 271 272 271 272 274 276 278 279 279 279 280 281
252 254 257 258 259 259 260 261 260 258 258 260 262 263 264 265 263 260 257 257 261 267 269 267 267 266 264 266 270 269 265 265 266 263 260 259 258 263 267 267 267 269 269 270 270 270 271 273 276 277 277 277 277 276 272 270 269 268 268 270 271 271 270 270 270 270 271 273 274 275 277 278 279 280
249 251 254 256 258 261 262 257 253 254 256 260 265 266 265 264 260 256 254 257 261 263 260 258 256 256 256 259 264 265 262 262 263 263 262 258 253 255 262 267 268 268 268 269 270 270 270 272 273 275 275 273 272 272 272 272 272 271 272 273 274 275 275 275 274 272 270 270 270 271 272 273 274 275
246 247 250 253 257 261 260 256 256 260 263 263 262 260 258 255 253 252 253 257 259 257 254 255 256 258 259 257 255 260 267 268 265 264 262 258 254 254 259 267 270 271 271 270 272 274 272 271 271 272 272 269 269 273 275 274 275 276 278 278 277 279 281 281 281 278 273 270 269 270 271 272 273 273
244 245 248 251 256 258 255 254 256 257 259 260 256 252 250 249 250 252 254 257 258 254 253 255 255 257 259 258 259 266 272 270 268 269 268 266 264 262 264 268 270 273 274 272 273 273 270 270 271 272 271 269 268 271 273 272 274 279 282 282 283 284 285 285 284 282 279 275 272 271 271 271 273 273
243 245 248 251 251 248 246 249 253 252 254 256 253 248 246 247 250 253 256 257 256 256 258 259 257 256 259 263 265 266 268 270 272 273 272 270 266 263 266 269 269 272 272 270 270 270 268 268 268 268 268 265 261 264 269 270 273 278 281 283 286 288 287 285 283 281 280 279 277 276 274 271 271 272
241 244 247 246 242 244 248 251 255 256 254 252 250 246 244 245 249 252 253 252 252 255 259 259 257 255 257 261 263 265 270 271 267 264 267 269 267 267 271 274 272 270 265 262 264 267 266 263 263 266 265 261 260 266 271 274 276 280 284 287 289 290 288 286 284 282 281 281 281 282 281 277 276 277
235 237 239 240 241 245 248 246 247 249 248 245 245 244 243 244 248 251 251 250 251 252 252 253 254 253 253 255 258 263 263 255 250 255 261 265 272 278 281 280 278 272 260 254 258 261 257 251 255 262 264 262 268 276 278 279 282 285 289 291 291 289 287 287 287 286 285 285 284 284 283 280 278 278
229 232 236 240 243 241 239 238 239 240 240 241 242 242 241 243 248 254 255 257 260 256 250 250 250 249 253 259 263 265 261 255 256 261 263 263 266 272 274 274 273 268 262 260 262 263 260 249 250 259 265 268 276 282 284 283 283 284 288 292 292 289 287 287 287 287 287 288 287 285 283 281 279 278
229 234 236 239 240 237 239 242 240 238 239 238 236 236 236 237 243 253 260 267 268 255 245 247 251 254 257 260 261 263 264 266 267 268 267 264 259 258 262 264 265 264 263 263 264 266 265 255 249 255 263 269 274 279 283 285 283 285 289 294 294 292 288 286 285 285 286 287 287 288 286 284 282 282
228 231 232 234 235 235 237 238 237 239 241 236 231 232 233 232 238 251 260 267 264 248 237 241 247 251 255 258 266 276 280 279 277 273 268 260 251 248 250 253 256 261 265 264 261 262 261 254 249 251 259 267 274 280 286 291 293 294 296 296 296 293 289 287 287 288 289 288 288 287 286 285 283 282
224 224 227 230 230 230 230 231 236 240 239 236 236 236 235 234 240 249 255 258 258 252 243 239 242 255 266 272 282 289 286 280 277 270 262 255 248 247 246 244 245 251 261 265 261 258 258 255 254 253 254 258 267 278 287 291 294 297 298 299 299 295 290 290 292 292 291 289 288 288 287 287 285 282
219 220 226 229 229 232 235 235 239 243 244 245 246 244 242 242 244 248 251 254 253 247 243 245 255 274 282 285 294 301 287 274 272 268 262 256 252 249 248 245 237 236 245 254 259 262 265 259 251 249 252 254 261 271 283 291 294 297 301 304 305 303 300 300 302 302 295 287 285 288 291 291 289 285
213 217 223 226 227 233 239 242 246 251 254 253 251 250 249 248 249 250 248 250 250 246 249 255 252 259 273 284 300 298 269 253 258 264 266 264 257 252 254 256 249 243 248 257 263 267 267 255 244 246 254 259 262 267 280 292 294 295 300 302 305 306 306 307 310 313 308 293 285 288 292 293 292 285
207 211 217 223 229 235 240 246 251 255 257 259 258 255 250 248 250 249 241 239 241 240 241 243 240 249 263 262 245 246 243 243 253 262 267 270 266 261 260 259 257 256 259 264 265 265 261 252 246 249 254 260 265 270 277 284 284 287 294 297 299 302 303 305 311 316 316 306 291 287 290 294 294 284
207 213 221 231 239 245 250 256 260 262 264 265 261 251 242 239 241 242 236 234 240 241 239 242 249 256 250 227 224 238 246 249 255 261 265 267 267 267 265 260 257 258 259 261 265 267 265 257 251 252 257 262 267 268 267 268 273 282 290 294 296 299 301 306 311 314 318 313 297 285 285 289 291 286
218 226 235 242 248 254 261 266 267 267 264 259 247 234 231 231 232 233 227 224 233 243 243 240 240 234 226 228 235 243 249 254 259 264 267 262 259 266 274 272 269 265 257 256 267 275 277 273 265 261 264 269 273 269 261 259 264 273 281 287 292 295 299 303 307 310 315 315 303 287 282 280 279 280
228 235 242 248 253 259 266 267 262 253 245 237 226 219 218 219 216 212 208 210 219 226 216 201 210 223 231 240 245 248 253 259 260 262 266 263 263 276 282 277 277 278 274 272 276 281 286 285 279 273 269 271 278 278 270 263 263 267 273 279 283 284 288 294 298 304 310 310 301 291 287 280 275 276
233 239 244 248 252 254 255 249 235 228 224 211 197 196 198 196 195 198 209 219 220 211 194 188 216 235 240 246 254 258 260 259 256 258 264 270 281 289 286 278 279 279 277 277 280 286 294 295 287 279 271 266 266 269 268 267 266 266 269 274 275 277 281 288 293 299 303 301 292 284 285 285 284 281
236 237 238 238 235 230 225 214 200 196 195 183 177 183 184 182 187 206 229 229 210 195 187 191 216 234 244 257 263 257 251 248 250 252 255 265 277 276 271 274 278 272 268 272 278 287 298 303 298 289 277 267 263 262 261 260 261 264 268 272 275 277 280 285 292 296 298 296 292 286 279 277 281 284
229 226 221 215 211 205 202 199 187 175 170 170 171 170 167 171 187 222 237 210 187 185 191 202 217 230 243 259 260 243 236 241 247 251 257 266 271 265 260 264 268 263 264 272 278 285 292 297 298 297 287 272 264 263 262 260 259 260 262 267 273 278 283 289 295 297 296 296 297 296 286 275 274 275
204 203 199 197 198 195 192 190 179 170 169 166 161 161 161 169 199 246 251 194 191 205 209 213 218 223 230 240 244 239 239 245 254 263 266 264 259 255 254 256 251 248 260 272 281 287 288 288 294 302 305 295 281 273 268 265 262 256 253 259 269 276 282 288 293 296 297 298 298 297 294 286 279 275
166 172 183 180 190 198 192 188 183 184 191 183 175 185 183 175 194 226 234 207 224 253 238 211 208 210 215 224 229 234 243 248 253 261 268 267 263 257 250 244 242 254 269 275 279 285 287 290 297 304 307 310 317 326 325 308 292 267 253 259 269 275 279 283 288 293 298 299 299 299 296 287 283 285
161 173 197 199 208 215 210 207 207 206 212 210 199 204 215 207 195 202 202 198 215 243 253 224 210 203 202 212 224 228 234 244 250 253 262 276 287 272 248 241 246 267 278 277 274 278 286 293 299 300 297 297 310 322 327 319 303 284 275 276 280 281 281 280 283 291 298 301 300 298 293 282 273 277
171 185 211 214 214 217 216 214 208 203 210 218 207 199 214 235 235 195 184 193 210 226 237 253 273 256 210 216 229 224 228 245 251 242 243 257 275 273 270 274 274 273 278 282 271 260 266 278 286 288 287 283 289 306 320 318 291 289 303 302 293 288 286 285 285 287 293 299 300 298 296 293 282 266
179 183 206 224 224 222 222 222 217 208 207 213 210 198 204 225 239 230 207 205 221 229 220 224 244 256 247 251 251 234 234 253 253 229 227 244 257 251 253 263 260 256 266 276 273 265 272 290 298 287 274 263 260 276 302 316 308 308 310 300 287 286 292 297 296 291 292 300 304 304 305 309 309 294
190 180 186 211 230 232 229 227 230 233 224 210 209 211 209 213 225 231 225 225 243 252 226 209 218 228 230 241 250 247 246 254 253 231 225 236 242 242 244 248 242 241 254 267 273 278 287 305 321 319 320 324 301 272 269 277 283 283 282 279 277 279 286 300 311 308 307 311 309 305 304 305 307 307
207 195 182 188 220 240 240 230 227 236 241 227 215 215 215 213 224 236 237 237 248 251 219 203 215 226 222 223 232 242 250 251 244 238 235 233 234 237 239 238 234 236 246 254 263 274 281 287 300 309 313 323 328 316 295 287 276 261 263 274 274 267 274 295 313 312 315 318 307 297 298 299 300 302
296 241 201 193 205 230 244 241 231 225 230 236 230 220 214 210 216 230 241 245 253 256 228 207 212 221 226 228 230 232 239 240 235 234 232 227 231 236 235 232 238 248 254 253 255 268 278 285 292 294 295 307 319 317 308 302 287 264 279 295 286 261 263 288 308 310 314 318 307 296 294 292 289 289
299 308 288 209 208 222 235 243 243 234 228 233 237 234 228 219 213 215 221 231 245 255 242 221 216 218 225 235 238 235 233 231 232 234 232 225 229 239 242 243 251 263 272 280 282 276 275 277 280 278 284 300 307 303 303 303 295 284 292 305 303 281 268 273 286 296 303 306 305 306 306 297 284 280
261 282 298 298 256 242 240 242 246 246 240 240 245 247 245 240 233 228 225 225 231 238 238 234 231 227 227 236 244 244 236 228 227 233 236 233 235 243 249 256 264 269 270 278 287 282 275 276 285 285 288 298 300 298 301 303 296 282 283 297 305 300 286 274 272 278 287 294 299 304 308 304 295 287
206 244 263 276 264 249 253 256 251 244 238 236 242 248 250 252 254 253 249 243 241 244 245 243 239 236 234 237 243 246 244 239 233 233 237 239 241 245 252 260 269 274 272 272 276 278 279 289 297 295 294 297 296 294 297 301 295 282 281 288 295 299 297 288 280 278 283 290 295 296 298 300 298 293
184 220 237 247 248 250 262 271 270 269 269 263 258 259 261 265 267 267 265 264 260 256 255 253 249 247 244 239 240 244 248 248 245 242 243 245 247 249 253 257 263 271 273 269 265 270 278 287 291 291 291 293 292 291 295 298 290 281 280 281 285 292 295 293 290 289 289 290 292 295 296 293 288 284
Height
1546 1546 1546 1547 1547 1547 1547 1548 1548 1548 1548 1548 1548 1548 1549 1549 1550 1550 1550 1551 1551 1551 1551 1552 1553 1554 1553 1554 1554 1555 1555 1554 1555 1556 1555 1555 1554 1554 1554 1554 1554 1554 1554 1554 1554 1554 1554 1554 1553 1553 1552 1552 1551 1550 1550 1550 1551 1551 1552 1552 1553 1554 1555 1555 1555 1555 1555 1555 1555 1555 1555 1555 1555 1555
1544 1545 1545 1545 1545 1546 1546 1546 1546 1547 1547 1547 1547 1547 1547 1547 1548 1549 1549 1549 1550 1551 1550 1550 1551 1552 1552 1552 1552 1553 1553 1552 1552 1553 1553 1553 1553 1553 1553 1552 1552 1552 1552 1552 1552 1552 1552 1552 1552 1551 1551 1550 1550 1549 1549 1549 1549 1550 1550 1551 1552 1553 1553 1553 1553 1553 1554 1554 1554 1554 1554 1554 1554 1554
1543 1543 1543 1543 1544 1544 1544 1545 1545 1545 1545 1545 1545 1546 1546 1546 1547 1548 1548 1548 1549 1550 1550 1549 1549 1550 1551 1551 1551 1552 1552 1552 1552 1551 1551 1551 1552 1553 1552 1552 1551 1551 1551 1550 1551 1551 1551 1550 1550 1550 1550 1549 1549 1548 1548 1548 1548 1549 1549 1550 1551 1551 1552 1552 1552 1552 1552 1552 1552 1552 1552 1552 1552 1552
1541 1541 1541 1542 1542 1542 1543 1543 1543 1543 1544 1544 1544 1544 1544 1545 1546 1546 1546 1545 1546 1548 1548 1548 1548 1548 1549 1550 1550 1550 1550 1551 1551 1550 1549 1549 1550 1551 1551 1551 1550 1550 1550 1549 1550 1550 1549 1549 1549 1548 1548 1548 1548 1547 1547 1547 1547 1548 1548 1549 1549 1550 1550 1550 1551 1551 1551 1551 1551 1551 1551 1551 1551 1551
1539 1539 1539 1540 1540 1541 1541 1541 1541 1542 1543 1543 1543 1543 1543 1543 1543 1543 1543 1543 1543 1545 1546 1546 1546 1546 1547 1547 1548 1548 1548 1548 1549 1548 1548 1548 1548 1548 1548 1549 1549 1549 1548 1548 1548 1548 1548 1548 1548 1547 1547 1546 1546 1546 1546 1546 1546 1546 1547 1547 1548 1548 1548 1549 1549 1549 1549 1549 1549 1549 1549 1549 1549 1549
1538 1538 1538 1538 1539 1539 1540 1540 1540 1540 1541 1541 1541 1542 1542 1542 1542 1541 1541 1541 1541 1543 1544 1545 1545 1544 1545 1545 1546 1546 1546 1546 1546 1546 1547 1547 1547 1546 1546 1547 1547 1547 1547 1546 1546 1546 1546 1546 1546 1546 1545 1545 1545 1545 1545 1545 1545 1545 1545 1546 1546 1546 1546 1547 1547 1547 1547 1547 1547 1547 1547 1547 1547 1547
1536 1536 1536 1537 1537 1538 1538 1538 1539 1539 1539 1539 1539 1540 1540 1541 1540 1540 1540 1540 1540 1541 1542 1543 1543 1543 1544 1544 1544 1544 1544 1544 1544 1544 1545 1545 1545 1545 1545 1545 1546 1546 1545 1545 1545 1544 1544 1544 1544 1544 1544 1544 1544 1544 1544 1543 1543 1544 1544 1544 1544 1544 1545 1545 1545 1545 1545 1545 1545 1545 1545 1545 1545 1545
1534 1535 1535 1536 1536 1537 1536 1536 1537 1537 1537 1537 1537 1537 1538 1538 1539 1538 1538 1538 1539 1539 1540 1541 1541 1541 1542 1543 1543 1542 1542 1542 1542 1543 1543 1543 1543 1543 1543 1544 1544 1544 1544 1544 1543 1543 1543 1543 1543 1542 1542 1542 1542 1542 1542 1542 1542 1542 1542 1542 1543 1543 1543 1543 1543 1544 1544 1543 1543 1543 1543 1543 1543 1543
1530 1533 1535 1535 1536 1536 1535 1535 1535 1535 1535 1535 1535 1536 1536 1536 1536 1536 1536 1536 1536 1537 1538 1539 1539 1540 1540 1541 1541 1541 1540 1540 1540 1541 1541 1541 1541 1541 1541 1542 1542 1542 1542 1542 1542 1541 1541 1541 1541 1541 1541 1541 1541 1541 1541 1540 1540 1541 1541 1541 1541 1541 1541 1542 1542 1542 1542 1541 1541 1541 1541 1541 1541 1540
1524 1528 1530 1533 1534 1534 1534 1533 1533 1533 1533 1533 1533 1534 1534 1535 1535 1534 1534 1534 1534 1535 1535 1536 1537 1538 1538 1538 1538 1539 1538 1538 1538 1539 1539 1539 1540 1540 1540 1540 1540 1540 1540 1540 1539 1539 1539 1539 1539 1539 1539 1539 1539 1539 1539 1539 1539 1539 1539 1539 1539 1539 1540 1540 1540 1540 1540 1539 1539 1539 1539 1539 1538 1538
1522 1523 1525 1528 1530 1532 1532 1532 1532 1532 1531 1531 1532 1532 1532 1533 1533 1533 1532 1532 1532 1533 1533 1534 1535 1535 1535 1535 1536 1536 1536 1536 1537 1537 1538 1538 1539 1539 1538 1538 1538 1537 1537 1537 1537 1537 1537 1537 1536 1536 1537 1536 1536 1537 1537 1537 1537 1537 1537 1537 1537 1537 1538 1538 1538 1538 1538 1537 1537 1537 1537 1536 1536 1536
1521 1522 1523 1524 1525 1527 1529 1529 1530 1530 1530 1529 1530 1530 1529 1530 1531 1531 1530 1530 1530 1531 1531 1532 1532 1532 1532 1533 1534 1534 1534 1534 1534 1535 1536 1536 1536 1536 1536 1536 1535 1535 1535 1535 1535 1534 1534 1534 1534 1534 1534 1534 1534 1534 1534 1534 1535 1535 1535 1535 1535 1535 1535 1535 1536 1536 1535 1535 1535 1535 1535 1535 1535 1535
1518 1520 1521 1522 1522 1524 1525 1526 1527 1528 1528 1528 1527 1528 1528 1528 1529 1528 1528 1528 1528 1529 1529 1529 1529 1529 1529 1530 1532 1532 1532 1532 1532 1532 1532 1533 1533 1533 1534 1533 1533 1532 1532 1532 1532 1532 1532 1531 1531 1531 1531 1532 1532 1532 1532 1532 1532 1532 1532 1533 1533 1533 1533 1533 1533 1533 1533 1533 1533 1533 1533 1533 1533 1533
1515 1516 1518 1519 1520 1521 1521 1522 1523 1524 1526 1526 1526 1526 1526 1526 1526 1526 1525 1526 1526 1527 1527 1527 1527 1527 1527 1528 1529 1530 1529 1529 1529 1529 1529 1529 1530 1531 1531 1531 1531 1530 1530 1530 1530 1530 1530 1529 1529 1529 1529 1530 1530 1530 1530 1530 1530 1530 1530 1530 1530 1530 1531 1531 1531 1531 1531 1531 1531 1531 1531 1531 1531 1531
1512 1513 1514 1515 1516 1517 1518 1519 1520 1521 1523 1524 1524 1523 1523 1523 1523 1523 1523 1524 1524 1525 1525 1525 1525 1525 1526 1526 1526 1526 1526 1526 1526 1527 1527 1528 1528 1529 1529 1528 1528 1529 1529 1529 1528 1528 1528 1528 1528 1528 1527 1527 1528 1528 1528 1528 1528 1528 1528 1528 1528 1528 1528 1528 1528 1528 1528 1529 1529 1529 1529 1529 1528 1528
1509 1509 1510 1510 1511 1512 1514 1516 1517 1518 1520 1522 1521 1521 1520 1520 1520 1520 1521 1521 1522 1523 1522 1522 1523 1522 1523 1523 1523 1524 1524 1523 1523 1524 1525 1527 1527 1527 1527 1527 1527 1527 1528 1527 1527 1527 1527 1526 1526 1526 1525 1526 1526 1526 1526 1526 1526 1526 1526 1526 1526 1526 1526 1526 1526 1526 1526 1526 1526 1526 1526 1526 1526 1526
1506 1506 1507 1507 1507 1509 1511 1513 1514 1515 1517 1519 1519 1519 1518 1518 1518 1518 1519 1519 1520 1520 1520 1519 1520 1520 1520 1521 1521 1522 1522 1521 1521 1521 1522 1524 1524 1525 1525 1526 1526 1526 1526 1526 1525 1525 1525 1525 1525 1524 1524 1524 1524 1524 1525 1524 1524 1524 1524 1524 1524 1524 1524 1523 1523 1523 1523 1523 1523 1523 1523 1523 1523 1523
1503 1504 1504 1504 1505 1507 1509 1510 1511 1512 1515 1516 1517 1517 1517 1517 1517 1517 1517 1517 1517 1517 1517 1517 1517 1517 1518 1519 1519 1519 1519 1519 1519 1520 1520 1522 1523 1524 1525 1525 1525 1525 1525 1524 1523 1523 1523 1523 1523 1522 1522 1522 1523 1523 1523 1523 1522 1522 1522 1522 1522 1521 1521 1521 1520 1520 1520 1520 1520 1519 1519 1519 1520 1520
1501 1502 1502 1503 1503 1504 1506 1506 1507 1509 1512 1513 1514 1515 1515 1515 1515 1515 1515 1515 1515 1515 1515 1515 1515 1515 1516 1516 1517 1517 1517 1518 1518 1519 1520 1521 1522 1523 1523 1523 1523 1523 1523 1522 1522 1522 1522 1522 1522 1521 1520 1520 1521 1521 1521 1521 1521 1520 1520 1520 1519 1519 1518 1518 1518 1518 1517 1517 1517 1516 1516 1516 1516 1516
1498 1499 1500 1501 1502 1502 1503 1503 1504 1506 1509 1511 1512 1513 1513 1512 1513 1513 1514 1513 1513 1514 1514 1513 1513 1513 1514 1514 1515 1515 1516 1516 1517 1518 1520 1521 1521 1521 1521 1521 1521 1521 1521 1521 1520 1520 1521 1521 1520 1520 1519 1519 1518 1519 1519 1519 1518 1518 1518 1517 1517 1516 1516 1516 1515 1515 1515 1515 1514 1514 1514 1513 1513 1513
1495 1496 1497 1499 1500 1500 1500 1500 1501 1503 1506 1508 1510 1510 1510 1511 1512 1512 1511 1511 1511 1511 1512 1512 1512 1512 1512 1513 1513 1513 1514 1515 1516 1517 1517 1519 1519 1519 1519 1519 1519 1519 1519 1519 1519 1519 1519 1519 1518 1518 1518 1517 1517 1517 1517 1517 1517 1516 1516 1515 1515 1514 1514 1514 1513 1513 1513 1512 1512 1511 1511 1511 1511 1510
1492 1493 1494 1496 1497 1497 1497 1497 1498 1500 1503 1505 1507 1508 1509 1509 1510 1509 1509 1509 1509 1509 1510 1510 1510 1510 1511 1511 1511 1512 1512 1513 1513 1513 1514 1515 1516 1516 1516 1517 1517 1517 1517 1517 1517 1517 1517 1517 1517 1516 1516 1516 1515 1515 1515 1515 1515 1515 1514 1513 1513 1512 1512 1512 1512 1511 1511 1510 1510 1509 1509 1508 1508 1508
1489 1490 1492 1493 1494 1494 1494 1495 1496 1498 1500 1503 1504 1506 1506 1507 1507 1507 1506 1507 1507 1508 1508 1508 1508 1509 1509 1509 1509 1509 1510 1510 1510 1510 1511 1512 1512 1513 1513 1514 1514 1515 1515 1515 1515 1515 1515 1515 1516 1515 1515 1515 1514 1513 1512 1513 1513 1513 1513 1512 1511 1511 1510 1510 1509 1509 1509 1508 1507 1507 1506 1506 1506 1505
1487 1488 1489 1490 1492 1492 1492 1493 1495 1497 1499 1501 1502 1503 1504 1504 1505 1505 1505 1505 1505 1506 1506 1506 1506 1507 1507 1507 1508 1507 1507 1507 1508 1508 1508 1509 1509 1510 1511 1511 1512 1513 1513 1513 1513 1513 1514 1514 1514 1514 1514 1514 1513 1511 1511 1511 1511 1511 1511 1510 1510 1509 1509 1508 1508 1507 1507 1506 1505 1505 1504 1504 1503 1503
1485 1486 1487 1488 1489 1490 1491 1492 1493 1495 1497 1499 1500 1501 1501 1502 1503 1503 1503 1503 1503 1504 1504 1505 1505 1506 1506 1506 1506 1506 1506 1505 1506 1506 1506 1507 1508 1508 1509 1509 1510 1511 1511 1511 1511 1512 1512 1512 1512 1512 1512 1512 1512 1511 1510 1509 1509 1509 1509 1508 1508 1508 1507 1507 1507 1506 1505 1504 1504 1503 1502 1502 1501 1501
1484 1484 1485 1487 1488 1488 1489 1490 1492 1493 1495 1497 1498 1498 1499 1499 1500 1501 1502 1501 1502 1502 1503 1504 1504 1505 1505 1505 1505 1505 1505 1504 1504 1505 1505 1506 1506 1507 1507 1507 1508 1508 1508 1509 1509 1509 1510 1510 1510 1510 1510 1510 1510 1510 1509 1508 1507 1507 1507 1506 1506 1506 1505 1505 1504 1504 1503 1503 1502 1501 1500 1500 1499 1499
1482 1483 1484 1485 1486 1486 1487 1489 1490 1491 1493 1494 1494 1495 1495 1496 1498 1499 1499 1500 1500 1501 1502 1502 1503 1503 1504 1504 1504 1504 1503 1503 1503 1504 1504 1504 1505 1505 1505 1506 1506 1506 1507 1507 1507 1507 1508 1508 1508 1508 1508 1508 1508 1508 1509 1508 1506 1505 1505 1505 1504 1504 1504 1503 1502 1501 1501 1501 1501 1500 1499 1498 1498 1498
1480 1481 1482 1483 1484 1485 1486 1488 1488 1489 1490 1490 1491 1491 1492 1493 1495 1496 1497 1498 1499 1500 1500 1501 1501 1502 1502 1502 1501 1501 1501 1501 1502 1502 1503 1503 1503 1503 1504 1503 1504 1504 1505 1505 1505 1505 1505 1506 1506 1506 1506 1506 1506 1507 1507 1507 1505 1504 1504 1503 1502 1502 1501 1501 1501 1500 1499 1499 1498 1498 1498 1497 1497 1497
1479 1479 1480 1481 1483 1484 1486 1486 1487 1487 1487 1488 1488 1489 1490 1491 1492 1494 1495 1496 1497 1498 1499 1499 1500 1500 1500 1499 1500 1500 1500 1500 1501 1501 1501 1501 1501 1502 1502 1502 1502 1502 1503 1503 1503 1503 1503 1504 1504 1504 1504 1504 1505 1505 1505 1505 1505 1504 1503 1502 1501 1500 1499 1499 1499 1498 1498 1497 1497 1496 1496 1496 1496 1496
1479 1479 1480 1481 1482 1483 1484 1485 1485 1486 1486 1486 1487 1488 1488 1490 1491 1492 1494 1494 1495 1496 1497 1497 1498 1498 1498 1498 1498 1499 1499 1499 1499 1499 1500 1500 1500 1500 1500 1500 1500 1501 1501 1501 1501 1501 1501 1501 1501 1502 1502 1502 1502 1503 1503 1503 1503 1503 1503 1502 1501 1500 1499 1498 1498 1497 1497 1496 1495 1495 1495 1494 1494 1494
1478 1478 1479 1479 1480 1482 1483 1483 1484 1485 1485 1486 1486 1487 1488 1489 1490 1491 1492 1492 1493 1494 1495 1496 1496 1496 1496 1497 1497 1497 1497 1498 1498 1498 1498 1498 1498 1498 1498 1498 1499 1499 1499 1499 1499 1499 1499 1500 1499 1499 1500 1500 1500 1500 1501 1501 1501 1501 1501 1501 1500 1499 1498 1498 1497 1496 1496 1495 1494 1494 1494 1493 1493 1493
1476 1476 1477 1478 1479 1480 1481 1482 1483 1484 1484 1485 1486 1486 1487 1488 1489 1489 1490 1490 1491 1492 1493 1494 1494 1494 1495 1496 1496 1496 1496 1496 1496 1496 1497 1497 1497 1497 1497 1497 1497 1498 1498 1498 1497 1497 1498 1497 1497 1497 1497 1497 1497 1498 1498 1499 1499 1500 1500 1499 1499 1498 1497 1497 1496 1496 1495 1494 1493 1492 1492 1492 1492 1492
1474 1475 1476 1477 1478 1479 1480 1481 1482 1483 1483 1484 1485 1486 1486 1487 1487 1488 1488 1489 1489 1491 1491 1492 1493 1493 1494 1494 1494 1494 1495 1495 1495 1495 1495 1496 1496 1496 1496 1496 1496 1496 1496 1496 1496 1496 1496 1496 1495 1495 1495 1495 1495 1495 1496 1496 1497 1498 1498 1498 1497 1497 1497 1496 1495 1495 1494 1493 1492 1491 1491 1491 1491 1491
1473 1474 1475 1477 1478 1479 1479 1480 1481 1482 1482 1483 1484 1484 1485 1486 1486 1487 1487 1487 1488 1490 1490 1491 1492 1492 1493 1493 1493 1493 1494 1494 1494 1494 1494 1494 1495 1495 1495 1495 1495 1495 1495 1495 1495 1494 1494 1495 1494 1494 1493 1493 1493 1494 1494 1494 1494 1495 1496 1496 1496 1496 1496 1495 1494 1493 1493 1492 1491 1490 1490 1489 1489 1489
1474 1474 1476 1477 1478 1478 1479 1480 1480 1481 1482 1482 1483 1483 1484 1485 1485 1486 1487 1487 1487 1488 1489 1490 1490 1491 1491 1492 1492 1492 1493 1493 1493 1493 1493 1493 1493 1494 1494 1494 1494 1494 1494 1495 1494 1494 1493 1493 1493 1492 1492 1492 1492 1492 1493 1493 1493 1493 1494 1494 1494 1494 1494 1494 1493 1492 1492 1491 1491 1490 1489 1488 1488 1488
1474 1475 1477 1478 1478 1479 1480 1480 1480 1481 1482 1482 1483 1483 1483 1484 1484 1485 1486 1486 1487 1487 1487 1488 1489 1489 1490 1491 1491 1492 1492 1492 1492 1492 1492 1492 1493 1493 1493 1493 1493 1493 1493 1493 1494 1493 1492 1492 1492 1492 1492 1492 1491 1491 1491 1492 1492 1492 1492 1492 1492 1492 1492 1492 1491 1491 1490 1490 1489 1488 1487 1487 1487 1486
1474 1475 1478 1479 1479 1480 1480 1480 1481 1481 1482 1482 1482 1483 1483 1483 1483 1484 1485 1485 1486 1486 1486 1487 1487 1487 1488 1489 1490 1490 1491 1491 1491 1491 1491 1491 1492 1492 1492 1492 1492 1492 1492 1492 1492 1492 1491 1491 1491 1491 1491 1491 1491 1491 1491 1491 1491 1492 1492 1492 1491 1490 1490 1490 1490 1490 1489 1488 1488 1487 1486 1485 1485 1485
1473 1474 1477 1479 1480 1480 1480 1481 1481 1481 1481 1482 1482 1482 1482 1482 1482 1483 1483 1484 1485 1485 1486 1486 1486 1487 1487 1488 1488 1489 1489 1490 1490 1490 1490 1490 1491 1491 1491 1491 1491 1491 1491 1491 1491 1490 1490 1490 1489 1489 1490 1490 1490 1490 1490 1490 1490 1491 1491 1491 1490 1489 1489 1488 1488 1488 1487 1486 1485 1485 1484 1484 1483 1483
1474 1474 1475 1477 1480 1481 1481 1481 1481 1481 1481 1481 1481 1482 1483 1483 1482 1482 1483 1483 1483 1484 1485 1485 1486 1487 1488 1487 1487 1488 1488 1488 1489 1489 1489 1490 1490 1490 1491 1491 1491 1491 1491 1490 1489 1489 1488 1488 1488 1488 1488 1488 1488 1488 1488 1488 1488 1488 1488 1489 1489 1488 1487 1487 1486 1485 1485 1484 1483 1483 1483 1482 1482 1482
1474 1474 1474 1475 1478 1480 1480 1481 1481 1481 1481 1481 1482 1482 1483 1483 1483 1483 1482 1483 1483 1483 1484 1485 1485 1486 1487 1487 1487 1487 1487 1488 1488 1488 1489 1490 1490 1489 1489 1489 1489 1490 1490 1489 1488 1487 1486 1486 1487 1486 1486 1486 1486 1487 1487 1487 1486 1486 1486 1486 1487 1486 1485 1485 1484 1483 1483 1482 1482 1481 1481 1481 1481 1481
1473 1474 1475 1475 1476 1478 1480 1480 1480 1481 1482 1482 1482 1482 1483 1483 1483 1483 1483 1482 1482 1482 1483 1484 1485 1485 1486 1486 1486 1486 1487 1487 1488 1488 1488 1489 1488 1488 1488 1488 1488 1488 1488 1488 1487 1485 1484 1484 1485 1485 1485 1485 1485 1485 1485 1485 1485 1484 1484 1484 1484 1484 1484 1483 1482 1482 1481 1481 1481 1480 1480 1480 1479 1479
1472 1473 1474 1474 1475 1477 1478 1479 1479 1480 1481 1481 1481 1482 1482 1482 1483 1483 1483 1482 1482 1482 1482 1483 1483 1484 1484 1484 1484 1485 1485 1486 1487 1487 1487 1487 1487 1487 1486 1486 1487 1487 1486 1485 1485 1484 1483 1483 1483 1483 1483 1483 1484 1483 1483 1483 1483 1483 1482 1482 1482 1482 1482 1482 1481 1481 1480 1480 1480 1479 1479 1478 1478 1478
1471 1472 1474 1474 1475 1476 1477 1478 1479 1479 1480 1481 1481 1481 1481 1482 1482 1482 1482 1482 1482 1482 1482 1482 1482 1483 1483 1483 1483 1484 1484 1485 1485 1485 1485 1486 1486 1486 1485 1485 1485 1485 1485 1485 1484 1483 1483 1483 1483 1482 1482 1483 1483 1483 1483 1482 1482 1481 1481 1481 1481 1481 1481 1481 1480 1480 1480 1479 1479 1478 1477 1477 1476 1476
1470 1472 1474 1474 1475 1476 1476 1477 1478 1479 1479 1480 1481 1481 1481 1482 1482 1482 1482 1482 1481 1481 1481 1481 1482 1482 1482 1483 1483 1483 1483 1484 1484 1484 1484 1484 1485 1485 1485 1485 1484 1484 1484 1484 1484 1483 1482 1482 1482 1482 1482 1482 1482 1481 1481 1481 1481 1481 1481 1481 1480 1480 1480 1479 1479 1478 1478 1477 1477 1476 1476 1475 1475 1475
1469 1471 1473 1474 1474 1475 1475 1476 1476 1477 1478 1479 1480 1481 1482 1482 1482 1482 1482 1482 1481 1481 1481 1480 1481 1481 1481 1482 1482 1482 1483 1483 1483 1483 1483 1483 1483 1484 1484 1484 1484 1484 1484 1484 1484 1483 1482 1481 1480 1480 1480 1480 1480 1479 1479 1479 1480 1480 1480 1480 1479 1479 1479 1478 1477 1476 1475 1475 1475 1475 1474 1474 1474 1473